Precipitable_Water
1.24 1.34 1.38 1.43 1.44 1.50 1.50 1.41 1.40 1.48 1.52 1.52 1.51 1.61 1.68 1.71 1.71 1.71 1.71 1.66 1.62 1.63 1.65 1.64 1.73 1.73 1.77 1.75 1.81 1.75 1.65 1.60 1.61 1.55 1.56 1.60 1.58 1.62 1.60 1.60 1.58 1.57
1.26 1.31 1.35 1.42 1.47 1.54 1.58 1.54 1.46 1.43 1.49 1.51 1.55 1.60 1.68 1.73 1.76 1.77 1.77 1.70 1.63 1.58 1.65 1.60 1.63 1.64 1.64 1.66 1.72 1.81 1.66 1.63 1.62 1.58 1.56 1.56 1.60 1.62 1.60 1.63 1.64 1.68
1.32 1.31 1.31 1.31 1.38 1.48 1.55 1.56 1.52 1.47 1.47 1.52 1.57 1.61 1.64 1.70 1.71 1.72 1.77 1.74 1.62 1.57 1.59 1.59 1.57 1.58 1.59 1.64 1.62 1.67 1.66 1.66 1.63 1.58 1.55 1.53 1.56 1.58 1.62 1.68 1.67 1.67
1.33 1.33 1.32 1.31 1.34 1.42 1.52 1.54 1.51 1.49 1.48 1.45 1.51 1.62 1.66 1.68 1.67 1.67 1.70 1.71 1.65 1.56 1.56 1.54 1.53 1.54 1.54 1.60 1.65 1.63 1.60 1.65 1.73 1.65 1.59 1.56 1.59 1.70 1.65 1.69 1.71 1.67
1.27 1.32 1.35 1.34 1.34 1.36 1.43 1.46 1.46 1.47 1.48 1.48 1.49 1.58 1.64 1.65 1.65 1.64 1.65 1.66 1.67 1.60 1.57 1.51 1.50 1.49 1.51 1.55 1.64 1.63 1.62 1.59 1.67 1.69 1.59 1.55 1.59 1.65 1.68 1.66 1.62 1.62
1.33 1.32 1.34 1.34 1.34 1.36 1.35 1.37 1.42 1.45 1.49 1.49 1.48 1.52 1.57 1.67 1.67 1.65 1.61 1.58 1.60 1.59 1.60 1.54 1.49 1.48 1.49 1.49 1.53 1.58 1.64 1.57 1.62 1.61 1.58 1.55 1.54 1.59 1.65 1.65 1.55 1.57
1.43 1.36 1.34 1.37 1.37 1.38 1.39 1.38 1.41 1.44 1.48 1.52 1.56 1.50 1.51 1.58 1.62 1.65 1.64 1.59 1.54 1.51 1.53 1.52 1.48 1.45 1.49 1.46 1.44 1.46 1.54 1.54 1.56 1.54 1.49 1.49 1.53 1.50 1.55 1.60 1.60 1.54
1.67 1.55 1.45 1.42 1.39 1.39 1.40 1.41 1.42 1.43 1.49 1.53 1.53 1.55 1.52 1.51 1.56 1.59 1.61 1.60 1.54 1.48 1.45 1.47 1.48 1.47 1.46 1.45 1.42 1.38 1.40 1.50 1.56 1.56 1.46 1.44 1.47 1.45 1.47 1.59 1.62 1.56
1.80 1.70 1.64 1.54 1.41 1.38 1.37 1.40 1.42 1.43 1.50 1.49 1.50 1.55 1.56 1.53 1.51 1.53 1.56 1.55 1.52 1.50 1.46 1.43 1.45 1.47 1.47 1.43 1.41 1.39 1.36 1.36 1.41 1.50 1.50 1.45 1.41 1.41 1.44 1.51 1.55 1.53
1.82 1.77 1.74 1.79 1.69 1.55 1.47 1.44 1.43 1.46 1.48 1.47 1.52 1.53 1.53 1.55 1.54 1.51 1.51 1.53 1.49 1.48 1.46 1.42 1.42 1.42 1.43 1.42 1.39 1.38 1.36 1.34 1.33 1.38 1.45 1.47 1.44 1.42 1.42 1.41 1.40 1.42
2.00 1.88 1.87 1.93 1.92 1.90 1.84 1.68 1.62 1.56 1.50 1.46 1.47 1.48 1.50 1.51 1.54 1.54 1.50 1.48 1.48 1.46 1.46 1.44 1.42 1.40 1.38 1.38 1.39 1.39 1.37 1.37 1.36 1.36 1.41 1.45 1.46 1.44 1.41 1.37 1.37 1.34
2.04 2.02 1.95 1.90 1.94 1.94 1.82 1.91 1.66 1.53 1.66 1.58 1.45 1.42 1.41 1.43 1.44 1.49 1.48 1.45 1.45 1.46 1.45 1.46 1.45 1.42 1.39 1.38 1.38 1.38 1.38 1.36 1.35 1.35 1.35 1.39 1.44 1.44 1.42 1.39 1.34 1.35
1.98 1.84 1.84 1.89 1.95 1.91 1.84 1.76 1.84 1.80 1.62 1.64 1.62 1.49 1.40 1.37 1.39 1.39 1.45 1.46 1.45 1.43 1.42 1.41 1.41 1.39 1.38 1.38 1.36 1.35 1.33 1.32 1.31 1.31 1.29 1.29 1.33 1.37 1.40 1.41 1.38 1.36
1.96 1.94 1.89 1.93 1.96 1.99 1.96 1.87 1.88 1.84 1.82 1.72 1.69 1.57 1.47 1.41 1.41 1.39 1.41 1.43 1.44 1.44 1.41 1.39 1.36 1.35 1.33 1.33 1.34 1.32 1.30 1.28 1.27 1.25 1.26 1.28 1.29 1.31 1.31 1.30 1.30 1.30
2.00 2.00 2.00 1.94 1.89 1.90 1.88 1.81 1.86 1.98 1.95 1.87 1.86 1.72 1.60 1.52 1.47 1.46 1.44 1.39 1.41 1.42 1.40 1.39 1.34 1.29 1.27 1.27 1.26 1.25 1.24 1.21 1.23 1.22 1.20 1.20 1.23 1.26 1.28 1.29 1.29 1.28
2.01 2.00 2.00 1.99 1.95 1.93 1.90 1.84 1.92 2.03 2.03 1.96 1.92 1.88 1.76 1.68 1.57 1.51 1.50 1.44 1.40 1.40 1.39 1.38 1.36 1.34 1.29 1.25 1.22 1.20 1.19 1.16 1.15 1.16 1.16 1.14 1.12 1.12 1.14 1.19 1.22 1.25
2.06 2.04 2.00 1.97 1.99 2.04 2.04 2.02 2.00 2.01 1.98 1.99 1.88 1.79 1.77 1.79 1.70 1.58 1.53 1.48 1.44 1.40 1.39 1.39 1.38 1.37 1.36 1.33 1.25 1.21 1.18 1.14 1.09 1.06 1.09 1.10 1.07 1.03 1.01 1.05 1.10 1.15
2.00 2.01 2.02 2.00 2.01 2.06 2.08 2.04 2.00 1.98 1.96 1.96 1.94 1.82 1.74 1.79 1.75 1.68 1.60 1.58 1.55 1.51 1.47 1.45 1.42 1.41 1.40 1.39 1.35 1.29 1.25 1.21 1.16 1.09 1.05 1.04 1.03 1.00 0.98 0.99 1.00 1.04
2.00 1.98 1.99 1.98 1.99 2.00 2.05 2.11 2.07 2.01 2.00 2.00 1.99 1.98 1.88 1.75 1.77 1.73 1.63 1.62 1.58 1.55 1.56 1.58 1.52 1.51 1.50 1.48 1.47 1.42 1.36 1.32 1.27 1.20 1.13 1.07 1.04 1.02 0.99 0.98 0.98 0.98
1.90 1.94 1.93 1.90 1.92 1.98 2.03 2.14 2.14 2.11 2.10 2.10 2.06 2.05 1.96 1.85 1.82 1.82 1.79 1.71 1.67 1.61 1.56 1.59 1.62 1.64 1.61 1.56 1.52 1.49 1.45 1.43 1.39 1.35 1.28 1.20 1.12 1.06 1.03 1.01 0.98 0.95
1.83 1.85 1.85 1.88 1.89 1.92 2.00 2.11 2.17 2.14 2.12 2.13 2.12 2.08 2.02 1.95 1.87 1.83 1.86 1.83 1.75 1.71 1.66 1.61 1.63 1.71 1.73 1.70 1.66 1.59 1.54 1.48 1.44 1.41 1.37 1.33 1.28 1.22 1.13 1.06 1.02 0.99
1.70 1.76 1.84 1.92 1.95 1.95 1.97 2.05 2.10 2.14 2.10 2.13 2.12 2.11 2.12 2.11 2.05 1.97 1.88 1.84 1.82 1.78 1.74 1.72 1.75 1.72 1.72 1.76 1.75 1.72 1.67 1.60 1.51 1.44 1.38 1.35 1.32 1.30 1.25 1.21 1.17 1.12
1.70 1.72 1.78 1.85 1.85 1.82 1.92 1.99 2.03 2.08 2.12 2.16 2.08 2.07 2.07 2.08 2.04 2.00 1.96 1.90 1.86 1.84 1.77 1.76 1.80 1.84 1.84 1.79 1.73 1.72 1.69 1.63 1.60 1.55 1.45 1.39 1.35 1.34 1.32 1.30 1.27 1.25
1.47 1.56 1.57 1.62 1.62 1.63 1.70 1.86 1.96 2.00 2.04 2.09 2.07 2.06 2.03 2.03 2.04 2.03 2.05 2.03 1.96 1.91 1.89 1.81 1.81 1.86 1.83 1.74 1.70 1.68 1.65 1.59 1.50 1.41 1.46 1.41 1.36 1.38 1.38 1.36 1.32 1.29
1.17 1.26 1.28 1.35 1.47 1.55 1.63 1.68 1.74 1.83 1.93 2.02 2.03 2.03 2.05 2.10 2.11 2.07 2.06 2.08 2.09 2.06 2.01 1.93 1.87 1.83 1.74 1.69 1.67 1.67 1.66 1.64 1.60 1.53 1.43 1.39 1.33 1.28 1.34 1.35 1.35 1.36
1.02 1.07 1.14 1.20 1.27 1.36 1.45 1.54 1.65 1.70 1.75 1.82 1.85 1.88 1.92 1.99 2.02 2.02 2.02 2.05 2.09 2.08 2.08 2.03 1.90 1.82 1.78 1.75 1.76 1.78 1.76 1.76 1.81 1.79 1.76 1.72 1.69 1.60 1.46 1.39 1.35 1.34
Wind_Speed
13 13 12 12 11 11 11 11 11 11 10 10 9 9 8 8 7 7 7 7 6 6 5 5 5 5 4 5 5 5 5 5 5 5 6 6 6 6 5 5 6 5
14 14 13 12 12 12 12 11 12 12 11 10 10 10 9 8 8 8 8 7 6 6 6 5 5 5 5 5 5 5 5 5 5 5 5 5 5 5 6 6 5 5
15 14 14 13 13 12 12 12 12 12 12 11 11 10 10 9 9 9 8 8 7 6 6 6 5 5 5 5 5 5 5 5 5 5 5 5 5 6 6 5 5 5
15 15 15 14 13 13 13 12 12 12 12 12 12 11 10 10 10 10 9 9 8 7 7 6 6 6 6 5 5 5 5 5 5 5 5 5 6 5 5 5 5 5
16 15 15 14 14 13 13 13 13 13 13 13 13 12 11 11 10 10 10 9 9 8 7 7 6 6 6 6 6 5 5 5 5 5 6 6 6 6 5 5 5 6
16 16 15 15 14 14 14 14 14 14 14 14 13 13 13 12 11 11 10 10 10 9 8 8 7 7 7 6 6 6 6 6 6 6 6 6 6 6 6 5 5 6
16 16 16 16 15 14 14 14 14 14 14 14 14 14 13 13 12 12 11 11 10 10 9 9 8 8 7 7 7 7 7 6 6 6 6 6 6 6 6 6 5 6
16 16 16 16 15 15 14 15 14 14 14 14 14 14 14 14 13 13 12 11 11 10 10 10 9 8 8 8 8 8 8 7 7 7 7 7 7 6 6 6 6 6
18 17 17 17 16 15 15 15 15 15 15 15 15 15 15 15 15 14 13 13 12 11 11 10 10 10 9 9 9 9 9 9 8 8 8 7 7 7 7 7 7 7
19 19 18 18 17 16 15 14 15 15 16 15 15 15 16 15 15 15 15 14 13 13 12 11 11 11 10 10 10 10 10 10 9 9 9 8 8 8 8 7 7 7
17 18 18 18 17 15 14 14 14 14 15 16 16 16 16 16 16 16 16 15 15 14 14 13 12 12 12 11 11 11 11 11 10 10 10 10 9 9 9 9 9 8
16 16 17 17 16 15 15 15 15 14 14 15 17 17 17 17 17 17 17 17 16 15 15 14 14 13 13 12 12 12 12 12 11 11 11 11 11 10 10 10 10 10
17 17 17 17 17 16 16 17 17 16 14 14 16 17 17 17 18 18 18 17 17 16 16 15 15 15 14 14 13 13 13 13 12 12 12 12 12 12 11 11 11 11
16 17 17 17 17 18 18 18 18 18 16 15 15 17 18 17 18 18 18 18 17 17 17 16 16 16 15 15 15 15 14 14 14 13 13 13 13 13 13 12 12 12
15 15 16 16 17 18 19 19 19 18 18 16 14 16 18 18 17 18 18 18 18 18 17 17 17 17 16 16 16 16 16 15 15 15 15 14 14 14 14 13 13 13
13 14 14 16 17 18 18 19 19 19 19 18 16 15 16 17 17 18 18 19 19 19 18 18 18 17 17 17 17 17 17 17 17 16 16 16 16 15 15 15 14 14
11 12 13 14 15 17 17 18 19 19 20 19 18 16 16 16 16 17 17 18 19 19 19 19 19 18 18 18 18 18 18 18 18 18 17 17 17 17 17 16 16 16
11 11 11 12 14 15 16 17 18 19 20 20 20 18 17 17 17 17 17 17 17 18 19 19 19 19 19 19 19 19 19 19 19 19 18 18 18 18 18 18 18 17
11 11 11 12 13 14 15 16 18 18 19 20 20 20 19 19 19 18 18 17 17 17 17 18 18 19 20 20 20 19 20 20 20 20 19 19 19 19 19 19 19 19
13 13 11 11 12 13 15 16 17 17 18 19 20 20 20 20 20 20 20 19 19 18 18 18 18 18 18 19 20 21 21 21 21 21 21 20 20 20 20 20 21 21
15 15 14 13 13 13 14 15 15 15 16 18 19 20 21 21 22 22 22 22 21 21 21 21 21 20 20 19 20 20 21 22 22 23 23 22 22 21 21 21 21 21
15 16 16 16 16 15 16 16 15 15 15 16 18 19 20 21 22 22 23 23 23 23 23 23 23 24 23 23 22 22 21 21 22 24 24 24 24 24 23 23 22 22
16 16 16 17 17 17 17 17 17 16 16 16 17 18 20 21 22 22 23 23 24 24 24 24 25 25 25 25 24 24 24 22 22 23 24 25 25 25 25 25 25 24
17 17 17 17 17 17 17 18 18 18 18 18 18 18 19 20 21 22 23 23 24 24 25 25 25 25 25 25 24 25 25 25 24 24 24 25 25 26 26 26 27 27
17 17 17 17 17 17 17 18 18 19 20 19 19 19 19 19 20 20 21 22 23 24 25 25 25 25 25 25 25 25 26 27 27 27 27 26 26 27 27 27 28 28
17 17 17 17 17 18 18 18 18 19 19 20 20 20 20 20 20 20 21 21 22 23 24 24 25 25 25 25 25 25 26 27 28 28 28 28 28 28 28 28 29 29
Wind_Direction
210 210 209 210 211 210 210 209 207 205 203 201 201 200 198 193 190 187 185 182 178 176 175 172 172 171 169 171 166 161 165 169 170 171 170 168 169 171 170 168 166 167
211 212 212 213 213 211 211 212 210 208 207 205 204 203 203 200 196 193 190 188 187 184 181 178 178 178 175 172 169 167 169 172 173 174 175 176 173 173 176 174 171 174
213 213 214 215 216 214 213 213 213 211 210 209 207 205 205 205 202 199 197 195 194 193 189 186 186 185 183 178 174 175 175 175 177 177 178 181 181 178 179 179 178 183
215 215 215 217 218 217 215 214 215 214 212 211 209 207 207 208 206 203 202 200 198 199 198 194 192 191 190 187 183 182 180 179 181 182 183 185 186 185 186 187 186 190
217 216 217 218 218 218 217 216 216 215 214 212 210 209 209 209 209 207 207 205 203 205 206 202 199 196 195 194 192 191 188 186 186 187 190 190 191 192 194 194 192 194
218 217 217 218 219 218 217 217 218 217 216 214 213 212 211 210 212 212 211 210 209 209 210 210 208 203 201 200 199 200 199 195 194 193 195 197 197 198 198 197 197 199
218 217 217 219 219 218 217 217 219 219 218 216 215 215 214 212 213 214 214 214 213 212 212 214 214 210 208 207 205 207 206 203 202 201 202 204 204 206 205 203 203 205
218 217 217 218 219 219 218 218 219 219 219 218 217 217 217 215 215 215 216 217 216 216 215 216 217 216 214 213 211 211 211 210 211 209 210 210 210 213 213 211 212 213
219 218 217 218 218 219 219 220 220 220 220 220 220 219 220 219 218 217 218 219 220 220 218 217 219 219 219 219 218 217 215 216 218 217 215 216 217 218 219 218 220 222
220 221 219 218 218 218 220 221 222 222 222 223 222 221 221 222 222 221 221 222 221 222 222 220 220 221 222 223 224 223 221 219 221 221 221 222 223 224 225 225 226 228
222 223 223 221 220 219 221 223 223 224 225 225 224 223 223 223 224 224 223 224 224 224 225 224 223 223 223 225 226 227 226 225 224 224 225 226 228 229 229 230 230 232
226 226 226 227 227 226 225 226 226 227 229 227 225 224 225 225 225 226 226 226 227 227 227 226 226 226 225 226 227 228 229 229 229 229 229 229 231 232 232 233 234 235
228 227 228 229 229 228 227 227 227 229 231 232 229 226 226 226 226 227 228 228 229 229 230 230 229 229 229 229 229 230 230 231 232 233 234 234 235 235 236 237 238 239
226 227 228 229 229 229 229 227 226 228 231 233 234 229 227 228 228 227 228 229 230 231 231 232 233 233 233 232 233 234 234 234 235 236 237 238 238 239 240 240 240 241
226 228 230 231 230 232 231 228 227 229 229 230 235 232 228 229 230 229 229 229 230 231 232 233 234 236 236 236 236 238 238 238 238 238 239 240 241 242 243 244 243 243
227 230 232 232 231 231 231 227 227 228 226 228 235 235 228 228 230 230 231 231 230 231 232 233 235 237 238 238 238 239 240 241 241 241 242 242 243 244 245 246 246 246
229 232 233 234 232 230 229 227 226 227 226 229 235 236 231 230 231 232 234 234 233 232 232 234 236 237 238 239 240 241 241 242 243 243 243 244 244 245 246 247 247 248
233 235 235 233 231 228 228 228 228 229 230 232 235 236 234 233 234 235 237 237 236 235 235 236 237 238 238 239 240 241 242 243 244 244 244 245 245 246 247 247 248 249
237 239 240 237 233 230 230 232 232 232 233 235 236 237 237 237 237 238 239 239 238 238 237 238 239 240 241 241 242 241 241 242 244 245 246 246 246 247 247 248 248 249
240 240 242 242 238 234 235 236 235 234 235 237 238 238 239 240 239 240 241 241 241 241 241 241 241 241 242 243 244 244 243 243 243 244 245 246 247 247 248 249 249 250
243 242 245 247 244 243 243 243 241 239 238 239 240 240 241 242 242 242 242 243 244 244 244 244 245 246 246 246 247 248 248 246 245 245 245 246 247 248 249 250 250 251
247 247 248 250 250 250 250 248 247 244 242 242 243 243 243 244 244 244 244 244 245 246 246 247 246 247 249 250 250 251 252 251 250 248 247 247 248 249 249 250 251 251
250 250 250 251 252 253 252 250 249 247 245 245 246 247 246 245 245 245 246 246 246 247 248 249 248 248 249 250 251 251 252 254 253 251 250 249 250 250 250 250 251 251
252 253 253 254 254 255 254 252 251 249 248 248 249 250 250 248 247 247 248 248 248 248 249 250 250 250 249 250 251 251 251 252 253 252 252 252 252 252 251 251 251 251
255 255 255 255 256 256 255 253 252 252 252 251 251 252 252 251 250 250 251 250 250 250 250 250 250 250 250 251 251 251 250 251 251 251 252 254 254 254 253 253 253 253
256 256 257 257 257 257 257 254 253 254 253 252 252 253 253 252 251 252 253 253 253 252 251 250 250 251 251 252 253 252 251 251 252 252 252 253 254 254 254 253 253 254